Time,TemperatureF,DewpointF,PressureIn,WindDirection,WindDirectionDegrees,WindSpeedMPH,WindSpeedGustMPH,Humidity,HourlyPrecipIn,Conditions,Clouds,dailyrainin,SoftwareType,DateUTC
2013-02-04 00:03:00,48.3,37.9,29.96,WSW,251,0.0,0.0,67,0.00,,---,0.00,VWS V13.01,2013-02-04 08:03:00,
2013-02-04 00:08:00,46.8,37.9,29.96,WSW,251,0.0,0.0,71,0.00,,---,0.00,VWS V13.01,2013-02-04 08:08:00,
2013-02-04 00:13:00,46.8,37.9,29.96,WSW,251,0.0,0.0,71,0.00,,---,0.00,VWS V13.01,2013-02-04 08:13:00,
2013-02-04 00:18:00,46.8,37.9,29.99,WSW,251,0.0,0.0,71,0.00,,---,0.00,VWS V13.01,2013-02-04 08:18:00,
2013-02-04 00:23:00,46.2,37.3,29.99,WSW,251,0.0,0.0,71,0.00,,---,0.00,VWS V13.01,2013-02-04 08:23:00,
2013-02-04 00:28:00,46.1,37.2,29.99,WSW,251,0.0,0.0,71,0.00,,---,0.00,VWS V13.01,2013-02-04 08:28:00,
2013-02-04 00:33:00,46.0,37.8,29.99,WSW,251,0.0,0.0,73,0.00,,---,0.00,VWS V13.01,2013-02-04 08:33:00,
2013-02-04 00:38:00,45.8,37.7,29.99,WSW,251,0.0,0.0,73,0.00,,---,0.00,VWS V13.01,2013-02-04 08:38:00,
2013-02-04 00:43:00,45.7,37.5,29.99,WSW,251,0.0,0.0,73,0.00,,---,0.00,VWS V13.01,2013-02-04 08:43:00,
2013-02-04 00:48:00,45.5,37.4,29.98,WSW,251,0.0,0.0,73,0.00,,---,0.00,VWS V13.01,2013-02-04 08:48:00,
2013-02-04 00:53:00,45.5,37.4,29.98,WSW,251,0.0,0.0,73,0.00,,---,0.00,VWS V13.01,2013-02-04 08:53:00,
2013-02-04 00:58:00,45.2,37.1,29.98,WSW,251,0.0,0.0,73,0.00,,---,0.00,VWS V13.01,2013-02-04 08:58:00,
2013-02-04 01:03:00,45.1,37.0,29.98,WSW,251,0.0,0.0,73,0.00,,---,0.00,VWS V13.01,2013-02-04 09:03:00,
2013-02-04 01:08:00,45.1,37.0,29.98,WSW,251,0.0,0.0,73,0.00,,---,0.00,VWS V13.01,2013-02-04 09:08:00,
2013-02-04 01:13:00,44.9,37.1,29.98,WSW,251,0.0,0.0,74,0.00,,---,0.00,VWS V13.01,2013-02-04 09:13:00,
2013-02-04 01:18:00,44.9,37.5,29.98,WSW,251,0.0,0.0,75,0.00,,---,0.00,VWS V13.01,2013-02-04 09:18:00,
2013-02-04 01:23:00,44.9,37.5,29.98,WSW,251,0.0,0.0,75,0.00,,---,0.00,VWS V13.01,2013-02-04 09:23:00,
2013-02-04 01:28:00,44.9,37.5,29.98,WSW,251,0.0,0.0,75,0.00,,---,0.00,VWS V13.01,2013-02-04 09:28:00,
2013-02-04 01:33:00,44.9,37.5,29.98,WSW,251,0.0,0.0,75,0.00,,---,0.00,VWS V13.01,2013-02-04 09:33:00,
2013-02-04 01:38:00,44.9,37.5,29.98,WSW,251,0.0,0.0,75,0.00,,---,0.00,VWS V13.01,2013-02-04 09:38:00,
2013-02-04 01:43:00,44.9,37.5,29.98,WSW,251,0.0,0.0,75,0.00,,---,0.00,VWS V13.01,2013-02-04 09:43:00,
2013-02-04 01:48:00,44.9,37.5,29.95,WSW,251,0.0,0.0,75,0.00,,---,0.00,VWS V13.01,2013-02-04 09:48:00,
2013-02-04 01:53:00,44.2,36.8,29.95,WSW,251,0.0,0.0,75,0.00,,---,0.00,VWS V13.01,2013-02-04 09:53:00,
2013-02-04 01:58:00,44.2,36.8,29.95,WSW,251,0.0,0.0,75,0.00,,---,0.00,VWS V13.01,2013-02-04 09:58:00,
2013-02-04 02:03:00,44.2,36.8,29.98,WSW,251,0.0,0.0,75,0.00,,---,0.00,VWS V13.01,2013-02-04 10:03:00,
2013-02-04 02:08:00,44.2,36.8,29.98,WSW,251,0.0,0.0,75,0.00,,---,0.00,VWS V13.01,2013-02-04 10:08:00,
2013-02-04 02:12:00,44.1,36.7,29.98,WSW,251,0.0,0.0,75,0.00,,---,0.00,VWS V13.01,2013-02-04 10:12:00,
2013-02-04 02:17:00,44.1,36.7,29.98,WSW,251,0.0,0.0,75,0.00,,---,0.00,VWS V13.01,2013-02-04 10:17:00,
2013-02-04 02:22:00,43.9,36.5,29.98,WSW,251,0.0,0.0,75,0.00,,---,0.00,VWS V13.01,2013-02-04 10:22:00,
2013-02-04 02:27:00,43.9,36.5,29.98,WSW,251,0.0,0.0,75,0.00,,---,0.00,VWS V13.01,2013-02-04 10:27:00,
2013-02-04 02:32:00,43.9,37.2,29.98,WSW,251,0.0,0.0,77,0.00,,---,0.00,VWS V13.01,2013-02-04 10:32:00,
2013-02-04 02:37:00,43.9,37.2,29.98,WSW,251,0.0,0.0,77,0.00,,---,0.00,VWS V13.01,2013-02-04 10:37:00,
2013-02-04 02:42:00,43.9,37.2,29.98,WSW,251,0.0,0.0,77,0.00,,---,0.00,VWS V13.01,2013-02-04 10:42:00,
2013-02-04 02:47:00,43.9,37.2,29.99,WSW,251,0.0,0.0,77,0.00,,---,0.00,VWS V13.01,2013-02-04 10:47:00,
2013-02-04 02:52:00,43.9,37.2,29.99,WSW,251,0.0,0.0,77,0.00,,---,0.00,VWS V13.01,2013-02-04 10:52:00,
2013-02-04 02:57:00,43.9,37.2,29.99,WSW,251,0.0,0.0,77,0.00,,---,0.00,VWS V13.01,2013-02-04 10:57:00,
2013-02-04 03:02:00,43.9,37.2,29.99,NW,316,5.0,5.0,77,0.00,,---,0.00,VWS V13.01,2013-02-04 11:02:00,
2013-02-04 03:07:00,43.9,37.2,29.99,WSW,251,0.0,5.0,77,0.00,,---,0.00,VWS V13.01,2013-02-04 11:07:00,
2013-02-04 03:12:00,43.9,37.2,29.99,WSW,251,0.0,5.0,77,0.00,,---,0.00,VWS V13.01,2013-02-04 11:12:00,
2013-02-04 03:17:00,43.9,37.2,29.98,WSW,251,0.0,5.0,77,0.00,,---,0.00,VWS V13.01,2013-02-04 11:17:00,
2013-02-04 03:22:00,43.9,38.1,29.98,WSW,251,0.0,5.0,80,0.00,,---,0.00,VWS V13.01,2013-02-04 11:22:00,
2013-02-04 03:27:00,43.9,38.1,29.98,WSW,251,0.0,5.0,80,0.00,,---,0.00,VWS V13.01,2013-02-04 11:27:00,
2013-02-04 03:32:00,43.9,38.1,29.98,WSW,251,0.0,0.0,80,0.00,,---,0.00,VWS V13.01,2013-02-04 11:32:00,
2013-02-04 03:37:00,42.6,36.9,29.98,WSW,251,0.0,0.0,80,0.00,,---,0.00,VWS V13.01,2013-02-04 11:37:00,
2013-02-04 03:42:00,42.5,36.8,29.98,WSW,251,0.0,0.0,80,0.00,,---,0.00,VWS V13.01,2013-02-04 11:42:00,
2013-02-04 03:47:00,42.3,36.9,29.98,WSW,251,0.0,0.0,81,0.00,,---,0.00,VWS V13.01,2013-02-04 11:47:00,
2013-02-04 03:52:00,42.3,36.9,29.98,WSW,251,0.0,0.0,81,0.00,,---,0.00,VWS V13.01,2013-02-04 11:52:00,
2013-02-04 03:57:00,42.3,36.9,29.98,WSW,251,0.0,0.0,81,0.00,,---,0.00,VWS V13.01,2013-02-04 11:57:00,
2013-02-04 04:02:00,42.3,36.9,29.98,WSW,251,0.0,0.0,81,0.00,,---,0.00,VWS V13.01,2013-02-04 12:02:00,
2013-02-04 04:07:00,42.3,36.9,29.98,WSW,251,0.0,0.0,81,0.00,,---,0.00,VWS V13.01,2013-02-04 12:07:00,
2013-02-04 04:12:00,42.3,36.9,29.98,WSW,251,0.0,0.0,81,0.00,,---,0.00,VWS V13.01,2013-02-04 12:12:00,
2013-02-04 04:17:00,42.3,36.9,29.98,WSW,251,0.0,0.0,81,0.00,,---,0.00,VWS V13.01,2013-02-04 12:17:00,
2013-02-04 04:22:00,42.2,36.8,29.98,WSW,251,0.0,0.0,81,0.00,,---,0.00,VWS V13.01,2013-02-04 12:22:00,
2013-02-04 04:27:00,42.2,36.8,29.98,WSW,251,0.0,0.0,81,0.00,,---,0.00,VWS V13.01,2013-02-04 12:27:00,
2013-02-04 04:32:00,42.2,36.8,29.98,WSW,251,0.0,0.0,81,0.00,,---,0.00,VWS V13.01,2013-02-04 12:32:00,
2013-02-04 04:37:00,42.2,36.8,29.98,WSW,251,0.0,0.0,81,0.00,,---,0.00,VWS V13.01,2013-02-04 12:37:00,
2013-02-04 04:42:00,42.1,36.7,29.98,WSW,251,0.0,0.0,81,0.00,,---,0.00,VWS V13.01,2013-02-04 12:42:00,
2013-02-04 04:47:00,42.1,37.0,29.98,WSW,251,0.0,0.0,82,0.00,,---,0.00,VWS V13.01,2013-02-04 12:47:00,
2013-02-04 04:52:00,42.1,37.0,29.98,WSW,251,0.0,0.0,82,0.00,,---,0.00,VWS V13.01,2013-02-04 12:52:00,
2013-02-04 04:57:00,42.1,37.0,29.98,WSW,251,0.0,0.0,82,0.00,,---,0.00,VWS V13.01,2013-02-04 12:57:00,
2013-02-04 05:02:00,42.1,37.0,29.98,WSW,251,0.0,0.0,82,0.00,,---,0.00,VWS V13.01,2013-02-04 13:02:00,
2013-02-04 05:07:00,42.1,37.0,29.98,WSW,251,0.0,0.0,82,0.00,,---,0.00,VWS V13.01,2013-02-04 13:07:00,
2013-02-04 05:12:00,42.1,37.0,29.98,WSW,251,0.0,0.0,82,0.00,,---,0.00,VWS V13.01,2013-02-04 13:12:00,
2013-02-04 05:17:00,41.9,36.8,29.99,WSW,251,0.0,0.0,82,0.00,,---,0.00,VWS V13.01,2013-02-04 13:17:00,
2013-02-04 05:22:00,41.8,36.7,29.99,WSW,251,0.0,0.0,82,0.00,,---,0.00,VWS V13.01,2013-02-04 13:22:00,
2013-02-04 05:27:00,41.8,36.7,29.99,WSW,251,0.0,0.0,82,0.00,,---,0.00,VWS V13.01,2013-02-04 13:27:00,
2013-02-04 05:32:00,41.6,36.8,29.99,WSW,251,0.0,0.0,83,0.00,,---,0.00,VWS V13.01,2013-02-04 13:32:00,
2013-02-04 05:37:00,41.6,36.8,29.99,WSW,251,0.0,0.0,83,0.00,,---,0.00,VWS V13.01,2013-02-04 13:37:00,
2013-02-04 05:42:00,41.8,37.0,29.99,WSW,251,0.0,0.0,83,0.00,,---,0.00,VWS V13.01,2013-02-04 13:42:00,
2013-02-04 05:47:00,41.8,37.0,29.99,WSW,251,0.0,0.0,83,0.00,,---,0.00,VWS V13.01,2013-02-04 13:47:00,
2013-02-04 05:52:00,41.8,37.0,29.99,WSW,251,0.0,0.0,83,0.00,,---,0.00,VWS V13.01,2013-02-04 13:52:00,
2013-02-04 05:57:00,41.8,37.0,29.99,WSW,251,0.0,0.0,83,0.00,,---,0.00,VWS V13.01,2013-02-04 13:57:00,
2013-02-04 06:02:00,41.9,37.4,29.99,WSW,251,0.0,0.0,84,0.00,,---,0.00,VWS V13.01,2013-02-04 14:02:00,
2013-02-04 06:07:00,41.9,37.4,29.99,WSW,251,0.0,0.0,84,0.00,,---,0.00,VWS V13.01,2013-02-04 14:07:00,
2013-02-04 06:12:00,41.9,37.4,29.99,WSW,251,0.0,0.0,84,0.00,,---,0.00,VWS V13.01,2013-02-04 14:12:00,
2013-02-04 06:17:00,41.9,37.4,30.00,WSW,251,0.0,0.0,84,0.00,,---,0.00,VWS V13.01,2013-02-04 14:17:00,
2013-02-04 06:22:00,41.9,37.4,30.00,WSW,251,0.0,0.0,84,0.00,,---,0.00,VWS V13.01,2013-02-04 14:22:00,
2013-02-04 06:27:00,41.8,37.3,30.00,WSW,251,0.0,0.0,84,0.00,,---,0.00,VWS V13.01,2013-02-04 14:27:00,
2013-02-04 06:32:00,41.6,36.8,30.00,WSW,251,0.0,0.0,83,0.00,,---,0.00,VWS V13.01,2013-02-04 14:32:00,
2013-02-04 06:37:00,41.5,36.7,30.00,WSW,251,0.0,0.0,83,0.00,,---,0.00,VWS V13.01,2013-02-04 14:37:00,
2013-02-04 06:42:00,41.5,37.0,30.00,WSW,251,0.0,0.0,84,0.00,,---,0.00,VWS V13.01,2013-02-04 14:42:00,
2013-02-04 06:47:00,41.5,37.0,30.00,WSW,251,0.0,0.0,84,0.00,,---,0.00,VWS V13.01,2013-02-04 14:47:00,
2013-02-04 06:52:00,41.5,37.0,30.00,WSW,251,0.0,0.0,84,0.00,,---,0.00,VWS V13.01,2013-02-04 14:52:00,
2013-02-04 06:57:00,41.5,37.0,30.00,WSW,251,0.0,0.0,84,0.00,,---,0.00,VWS V13.01,2013-02-04 14:57:00,
2013-02-04 07:02:00,41.5,37.0,30.00,WSW,251,0.0,0.0,84,0.00,,---,0.00,VWS V13.01,2013-02-04 15:02:00,
2013-02-04 07:07:00,41.5,37.0,30.00,WSW,251,0.0,0.0,84,0.00,,---,0.00,VWS V13.01,2013-02-04 15:07:00,
2013-02-04 07:12:00,41.5,37.0,30.00,WSW,251,0.0,0.0,84,0.00,,---,0.00,VWS V13.01,2013-02-04 15:12:00,
2013-02-04 07:17:00,41.5,37.0,30.00,WSW,251,0.0,0.0,84,0.00,,---,0.00,VWS V13.01,2013-02-04 15:17:00,
2013-02-04 07:22:00,41.5,37.0,30.00,WSW,251,0.0,0.0,84,0.00,,---,0.00,VWS V13.01,2013-02-04 15:22:00,
2013-02-04 07:27:00,41.6,37.1,30.00,WSW,251,0.0,0.0,84,0.00,,---,0.00,VWS V13.01,2013-02-04 15:27:00,
2013-02-04 07:32:00,41.8,37.3,30.00,WSW,251,0.0,0.0,84,0.00,,---,0.00,VWS V13.01,2013-02-04 15:32:00,
2013-02-04 07:37:00,41.9,37.4,30.00,WSW,251,0.0,0.0,84,0.00,,---,0.00,VWS V13.01,2013-02-04 15:37:00,
2013-02-04 07:42:00,42.2,37.7,30.00,WSW,251,0.0,0.0,84,0.00,,---,0.00,VWS V13.01,2013-02-04 15:42:00,
2013-02-04 07:47:00,42.3,37.8,30.01,WSW,251,0.0,0.0,84,0.00,,---,0.00,VWS V13.01,2013-02-04 15:47:00,
2013-02-04 07:52:00,43.2,38.7,30.01,WSW,251,0.0,0.0,84,0.00,,---,0.00,VWS V13.01,2013-02-04 15:52:00,
2013-02-04 07:57:00,43.8,39.3,30.01,WSW,251,0.0,0.0,84,0.00,,---,0.00,VWS V13.01,2013-02-04 15:57:00,
2013-02-04 08:02:00,44.2,39.7,30.01,WSW,251,0.0,0.0,84,0.00,,---,0.00,VWS V13.01,2013-02-04 16:02:00,
2013-02-04 08:07:00,44.6,40.1,30.01,WSW,251,0.0,0.0,84,0.00,,---,0.00,VWS V13.01,2013-02-04 16:07:00,
2013-02-04 08:12:00,44.6,40.1,30.01,WSW,251,0.0,0.0,84,0.00,,---,0.00,VWS V13.01,2013-02-04 16:12:00,
2013-02-04 08:17:00,44.6,40.1,30.02,WSW,251,0.0,0.0,84,0.00,,---,0.00,VWS V13.01,2013-02-04 16:17:00,
2013-02-04 08:22:00,44.6,40.1,30.02,WSW,251,0.0,0.0,84,0.00,,---,0.00,VWS V13.01,2013-02-04 16:22:00,
2013-02-04 08:27:00,44.6,40.1,30.02,WSW,251,0.0,0.0,84,0.00,,---,0.00,VWS V13.01,2013-02-04 16:27:00,
2013-02-04 08:32:00,44.6,40.1,30.01,WSW,251,0.0,0.0,84,0.00,,---,0.00,VWS V13.01,2013-02-04 16:32:00,
2013-02-04 08:37:00,44.6,40.1,30.01,WSW,251,0.0,0.0,84,0.00,,---,0.00,VWS V13.01,2013-02-04 16:37:00,
2013-02-04 08:42:00,44.6,40.1,30.01,WSW,251,0.0,0.0,84,0.00,,---,0.00,VWS V13.01,2013-02-04 16:42:00,
2013-02-04 08:47:00,44.6,40.1,30.01,WSW,251,0.0,0.0,84,0.00,,---,0.00,VWS V13.01,2013-02-04 16:47:00,
2013-02-04 08:52:00,44.6,40.1,30.01,WSW,251,0.0,0.0,84,0.00,,---,0.00,VWS V13.01,2013-02-04 16:52:00,
2013-02-04 08:57:00,44.6,40.1,30.01,WSW,251,0.0,0.0,84,0.00,,---,0.00,VWS V13.01,2013-02-04 16:57:00,
2013-02-04 09:02:00,44.6,40.1,30.01,WSW,251,0.0,0.0,84,0.00,,---,0.00,VWS V13.01,2013-02-04 17:02:00,
2013-02-04 09:07:00,44.6,40.1,30.01,WSW,251,0.0,0.0,84,0.00,,---,0.00,VWS V13.01,2013-02-04 17:07:00,
2013-02-04 09:12:00,44.6,40.1,30.01,WSW,251,0.0,0.0,84,0.00,,---,0.00,VWS V13.01,2013-02-04 17:12:00,
2013-02-04 09:17:00,44.6,40.1,30.00,WSW,251,0.0,0.0,84,0.00,,---,0.00,VWS V13.01,2013-02-04 17:17:00,
2013-02-04 09:22:00,44.6,40.1,30.00,WSW,251,0.0,0.0,84,0.00,,---,0.00,VWS V13.01,2013-02-04 17:22:00,
2013-02-04 09:27:00,44.6,40.1,30.00,WSW,251,0.0,0.0,84,0.00,,---,0.00,VWS V13.01,2013-02-04 17:27:00,
2013-02-04 09:32:00,44.6,40.1,30.01,WSW,251,0.0,0.0,84,0.00,,---,0.00,VWS V13.01,2013-02-04 17:32:00,
2013-02-04 09:37:00,44.6,40.1,30.01,WSW,251,0.0,0.0,84,0.00,,---,0.00,VWS V13.01,2013-02-04 17:37:00,
2013-02-04 09:42:00,44.6,40.1,30.01,WSW,251,0.0,0.0,84,0.00,,---,0.00,VWS V13.01,2013-02-04 17:42:00,
2013-02-04 09:47:00,44.6,40.1,30.01,WSW,251,0.0,0.0,84,0.00,,---,0.00,VWS V13.01,2013-02-04 17:47:00,
2013-02-04 09:52:00,44.6,40.1,30.01,WSW,251,0.0,0.0,84,0.00,,---,0.00,VWS V13.01,2013-02-04 17:52:00,
2013-02-04 09:57:00,44.6,40.1,30.01,WSW,251,0.0,0.0,84,0.00,,---,0.00,VWS V13.01,2013-02-04 17:57:00,
2013-02-04 10:02:00,44.6,40.1,30.01,WSW,251,0.0,0.0,84,0.00,,---,0.00,VWS V13.01,2013-02-04 18:02:00,
2013-02-04 10:07:00,44.6,40.1,30.01,WSW,251,0.0,0.0,84,0.00,,---,0.00,VWS V13.01,2013-02-04 18:07:00,
2013-02-04 10:12:00,44.6,40.1,30.01,WSW,251,0.0,0.0,84,0.00,,---,0.00,VWS V13.01,2013-02-04 18:12:00,
2013-02-04 10:17:00,44.6,40.1,30.04,WSW,251,0.0,0.0,84,0.00,,---,0.00,VWS V13.01,2013-02-04 18:17:00,
2013-02-04 10:22:00,44.6,40.1,30.04,WSW,251,0.0,0.0,84,0.00,,---,0.00,VWS V13.01,2013-02-04 18:22:00,
2013-02-04 10:27:00,44.6,40.1,30.04,WSW,251,0.0,0.0,84,0.00,,---,0.00,VWS V13.01,2013-02-04 18:27:00,
2013-02-04 10:32:00,44.6,40.1,30.03,WSW,251,0.0,0.0,84,0.00,,---,0.00,VWS V13.01,2013-02-04 18:32:00,
2013-02-04 10:37:00,44.6,40.1,30.03,WSW,251,0.0,0.0,84,0.00,,---,0.00,VWS V13.01,2013-02-04 18:37:00,
2013-02-04 10:42:00,44.6,40.1,30.03,WSW,251,0.0,0.0,84,0.00,,---,0.00,VWS V13.01,2013-02-04 18:42:00,
2013-02-04 10:47:00,44.6,40.1,30.03,WSW,251,0.0,0.0,84,0.00,,---,0.00,VWS V13.01,2013-02-04 18:47:00,
2013-02-04 10:52:00,44.6,40.1,30.03,WSW,251,0.0,0.0,84,0.00,,---,0.00,VWS V13.01,2013-02-04 18:52:00,
2013-02-04 10:57:00,44.6,40.1,30.03,WSW,251,0.0,0.0,84,0.00,,---,0.00,VWS V13.01,2013-02-04 18:57:00,
2013-02-04 11:02:00,44.6,40.1,30.02,WSW,251,0.0,0.0,84,0.00,,---,0.00,VWS V13.01,2013-02-04 19:02:00,
2013-02-04 11:07:00,44.6,40.1,30.02,WSW,251,0.0,0.0,84,0.00,,---,0.00,VWS V13.01,2013-02-04 19:07:00,
2013-02-04 11:12:00,44.6,40.1,30.02,WSW,251,0.0,0.0,84,0.00,,---,0.00,VWS V13.01,2013-02-04 19:12:00,
2013-02-04 11:17:00,44.6,40.1,30.00,WSW,251,0.0,0.0,84,0.00,,---,0.00,VWS V13.01,2013-02-04 19:17:00,
2013-02-04 11:22:00,44.6,40.1,30.00,WSW,251,0.0,0.0,84,0.00,,---,0.00,VWS V13.01,2013-02-04 19:22:00,
2013-02-04 11:27:00,44.6,40.1,30.00,WSW,251,0.0,0.0,84,0.00,,---,0.00,VWS V13.01,2013-02-04 19:27:00,
2013-02-04 11:32:00,44.6,40.1,29.99,WSW,251,0.0,0.0,84,0.00,,---,0.00,VWS V13.01,2013-02-04 19:32:00,
2013-02-04 11:37:00,44.6,40.1,29.99,WSW,251,0.0,0.0,84,0.00,,---,0.00,VWS V13.01,2013-02-04 19:37:00,
2013-02-04 11:42:00,44.6,40.1,29.99,WSW,251,0.0,0.0,84,0.00,,---,0.00,VWS V13.01,2013-02-04 19:42:00,
2013-02-04 11:47:00,44.6,40.1,29.98,WSW,251,0.0,0.0,84,0.00,,---,0.00,VWS V13.01,2013-02-04 19:47:00,
2013-02-04 11:52:00,44.6,40.1,29.98,WSW,251,0.0,0.0,84,0.00,,---,0.00,VWS V13.01,2013-02-04 19:52:00,
2013-02-04 11:57:00,44.6,40.1,29.98,WSW,251,0.0,0.0,84,0.00,,---,0.00,VWS V13.01,2013-02-04 19:57:00,
2013-02-04 12:02:00,44.6,40.1,29.97,WSW,251,0.0,0.0,84,0.00,,---,0.00,VWS V13.01,2013-02-04 20:02:00,
2013-02-04 12:07:00,44.6,40.1,29.97,ENE,66,0.0,0.0,84,0.00,,---,0.00,VWS V13.01,2013-02-04 20:07:00,
2013-02-04 12:12:00,44.6,40.1,29.97,ENE,68,1.0,2.0,84,0.00,,---,0.00,VWS V13.01,2013-02-04 20:12:00,
2013-02-04 12:17:00,70.3,65.2,29.97,NE,51,1.0,2.0,84,0.00,,---,0.00,VWS V13.01,2013-02-04 20:17:00,
2013-02-04 12:22:00,70.3,65.2,29.97,NE,49,0.0,2.0,84,0.00,,---,0.00,VWS V13.01,2013-02-04 20:22:00,
2013-02-04 12:27:00,70.3,65.2,29.97,NE,49,0.0,2.0,84,0.00,,---,0.00,VWS V13.01,2013-02-04 20:27:00,
2013-02-04 12:32:00,70.3,65.2,29.96,NE,49,0.0,2.0,84,0.00,,---,0.00,VWS V13.01,2013-02-04 20:32:00,
2013-02-04 12:37:00,70.3,65.2,29.96,NE,49,0.0,0.0,84,0.00,,---,0.00,VWS V13.01,2013-02-04 20:37:00,
2013-02-04 12:42:00,70.3,65.2,29.96,NE,49,0.0,0.0,84,0.00,,---,0.00,VWS V13.01,2013-02-04 20:42:00,
2013-02-04 12:47:00,70.3,65.2,29.98,NE,49,0.0,0.0,84,0.00,,---,0.00,VWS V13.01,2013-02-04 20:47:00,
2013-02-04 12:52:00,70.3,65.2,29.98,NE,49,0.0,0.0,84,0.00,,---,0.00,VWS V13.01,2013-02-04 20:52:00,
2013-02-04 12:57:00,70.3,65.2,29.98,NE,49,0.0,0.0,84,0.00,,---,0.00,VWS V13.01,2013-02-04 20:57:00,
2013-02-04 13:02:00,70.3,65.2,29.97,NE,49,0.0,0.0,84,0.00,,---,0.00,VWS V13.01,2013-02-04 21:02:00,
2013-02-04 13:07:00,70.3,65.2,29.97,NE,49,0.0,0.0,84,0.00,,---,0.00,VWS V13.01,2013-02-04 21:07:00,
2013-02-04 13:12:00,70.3,65.2,29.97,NE,49,0.0,0.0,84,0.00,,---,0.00,VWS V13.01,2013-02-04 21:12:00,
2013-02-04 13:17:00,70.3,65.2,29.96,NE,49,0.0,0.0,84,0.00,,---,0.00,VWS V13.01,2013-02-04 21:17:00,
2013-02-04 13:22:00,70.3,65.2,29.96,NE,49,0.0,0.0,84,0.00,,---,0.00,VWS V13.01,2013-02-04 21:22:00,
2013-02-04 13:27:00,70.3,65.2,29.96,NE,49,0.0,0.0,84,0.00,,---,0.00,VWS V13.01,2013-02-04 21:27:00,
2013-02-04 13:32:00,70.3,65.2,29.95,NE,49,0.0,0.0,84,0.00,,---,0.00,VWS V13.01,2013-02-04 21:32:00,
2013-02-04 13:37:00,70.3,65.2,29.95,NE,49,0.0,0.0,84,0.00,,---,0.00,VWS V13.01,2013-02-04 21:37:00,
2013-02-04 13:42:00,70.3,65.2,29.95,NE,49,0.0,0.0,84,0.00,,---,0.00,VWS V13.01,2013-02-04 21:42:00,
2013-02-04 13:47:00,70.3,65.2,29.94,NE,49,0.0,0.0,84,0.00,,---,0.00,VWS V13.01,2013-02-04 21:47:00,
2013-02-04 13:52:00,70.3,65.2,29.94,NE,49,0.0,0.0,84,0.00,,---,0.00,VWS V13.01,2013-02-04 21:52:00,
2013-02-04 13:57:00,70.3,65.2,29.94,NE,49,0.0,0.0,84,0.00,,---,0.00,VWS V13.01,2013-02-04 21:57:00,
2013-02-04 14:02:00,70.3,65.2,29.93,NE,49,0.0,0.0,84,0.00,,---,0.00,VWS V13.01,2013-02-04 22:02:00,
2013-02-04 14:07:00,70.3,65.2,29.93,NE,49,0.0,0.0,84,0.00,,---,0.00,VWS V13.01,2013-02-04 22:07:00,
2013-02-04 14:12:00,70.3,65.2,29.93,NE,49,0.0,0.0,84,0.00,,---,0.00,VWS V13.01,2013-02-04 22:12:00,
2013-02-04 14:17:00,70.3,65.2,29.93,NE,49,0.0,0.0,84,0.00,,---,0.00,VWS V13.01,2013-02-04 22:17:00,
2013-02-04 14:22:00,70.3,65.2,29.93,NE,49,0.0,0.0,84,0.00,,---,0.00,VWS V13.01,2013-02-04 22:22:00,
2013-02-04 14:27:00,70.3,65.2,29.93,NE,49,0.0,0.0,84,0.00,,---,0.00,VWS V13.01,2013-02-04 22:27:00,
2013-02-04 14:32:00,70.3,65.2,29.92,NE,49,0.0,0.0,84,0.00,,---,0.00,VWS V13.01,2013-02-04 22:32:00,
2013-02-04 14:37:00,70.3,65.2,29.92,NE,49,0.0,0.0,84,0.00,,---,0.00,VWS V13.01,2013-02-04 22:37:00,
2013-02-04 14:42:00,70.3,65.2,29.92,NE,49,0.0,0.0,84,0.00,,---,0.00,VWS V13.01,2013-02-04 22:42:00,
2013-02-04 14:47:00,70.3,65.2,29.92,NE,49,0.0,0.0,84,0.00,,---,0.00,VWS V13.01,2013-02-04 22:47:00,
2013-02-04 14:52:00,73.9,68.8,29.92,ESE,123,1.0,3.0,84,0.00,,---,0.00,VWS V13.01,2013-02-04 22:52:00,
2013-02-04 14:57:00,73.9,68.8,29.92,ESE,123,1.0,3.0,84,0.00,,---,0.00,VWS V13.01,2013-02-04 22:57:00,
2013-02-04 15:02:00,73.9,68.8,29.92,ESE,123,1.0,3.0,84,0.00,,---,0.00,VWS V13.01,2013-02-04 23:02:00,
2013-02-04 15:07:00,73.9,68.8,29.92,ESE,123,1.0,1.0,84,0.00,,---,0.00,VWS V13.01,2013-02-04 23:07:00,
2013-02-04 15:12:00,73.9,68.8,29.92,ESE,123,1.0,1.0,84,0.00,,---,0.00,VWS V13.01,2013-02-04 23:12:00,
2013-02-04 15:17:00,76.5,38.1,29.89,West,275,0.0,6.0,25,0.00,,---,0.00,VWS V13.01,2013-02-04 23:17:00,
2013-02-04 15:22:00,77.2,38.7,29.89,West,280,5.0,6.0,25,0.00,,---,0.00,VWS V13.01,2013-02-04 23:22:00,
2013-02-04 15:27:00,77.6,39.0,29.89,West,263,2.0,6.0,25,0.00,,---,0.00,VWS V13.01,2013-02-04 23:27:00,
2013-02-04 15:32:00,77.4,38.9,29.89,WSW,258,5.0,6.0,25,0.00,,---,0.00,VWS V13.01,2013-02-04 23:32:00,
2013-02-04 15:37:00,77.4,38.9,29.89,West,261,4.0,5.0,25,0.00,,---,0.00,VWS V13.01,2013-02-04 23:37:00,
2013-02-04 15:42:00,77.6,39.0,29.89,WSW,243,5.0,7.0,25,0.00,,---,0.00,VWS V13.01,2013-02-04 23:42:00,
2013-02-04 15:47:00,77.2,38.7,29.89,WNW,282,0.0,7.0,25,0.00,,---,0.00,VWS V13.01,2013-02-04 23:47:00,
2013-02-04 15:52:00,77.2,40.7,29.89,West,267,0.0,7.0,27,0.00,,---,0.00,VWS V13.01,2013-02-04 23:52:00,
2013-02-04 15:57:00,77.4,39.9,29.89,West,267,1.0,7.0,26,0.00,,---,0.00,VWS V13.01,2013-02-04 23:57:00,
2013-02-04 16:02:00,77.4,39.9,29.89,WNW,288,0.0,7.0,26,0.00,,---,0.00,VWS V13.01,2013-02-05 00:02:00,
2013-02-04 16:07:00,77.4,39.9,29.89,West,270,0.0,1.0,26,0.00,,---,0.00,VWS V13.01,2013-02-05 00:07:00,
2013-02-04 16:12:00,77.2,41.6,29.89,WSW,257,0.0,5.0,28,0.00,,---,0.00,VWS V13.01,2013-02-05 00:12:00,
2013-02-04 16:17:00,77.2,40.7,29.89,West,260,0.0,5.0,27,0.00,,---,0.00,VWS V13.01,2013-02-05 00:17:00,
2013-02-04 16:22:00,77.0,41.4,29.89,West,260,0.0,5.0,28,0.00,,---,0.00,VWS V13.01,2013-02-05 00:22:00,
2013-02-04 16:27:00,76.7,45.5,29.89,NW,308,2.0,6.0,33,0.00,,---,0.00,VWS V13.01,2013-02-05 00:27:00,
2013-02-04 16:32:00,75.4,48.0,29.89,West,278,0.0,6.0,38,0.00,,---,0.00,VWS V13.01,2013-02-05 00:32:00,
2013-02-04 16:37:00,73.7,49.8,29.89,WSW,254,1.0,10.0,43,0.00,,---,0.00,VWS V13.01,2013-02-05 00:37:00,
2013-02-04 16:42:00,72.5,50.0,29.89,West,264,0.0,10.0,45,0.00,,---,0.00,VWS V13.01,2013-02-05 00:42:00,
2013-02-04 16:47:00,71.3,50.0,29.89,SW,233,2.0,10.0,47,0.00,,---,0.00,VWS V13.01,2013-02-05 00:47:00,
2013-02-04 16:52:00,70.3,49.7,29.89,West,271,0.0,10.0,48,0.00,,---,0.00,VWS V13.01,2013-02-05 00:52:00,
2013-02-04 16:57:00,69.9,49.9,29.89,West,271,0.0,10.0,49,0.00,,---,0.00,VWS V13.01,2013-02-05 00:57:00,
2013-02-04 17:02:00,69.9,49.9,29.90,West,271,0.0,10.0,49,0.00,,---,0.00,VWS V13.01,2013-02-05 01:02:00,
2013-02-04 17:07:00,69.9,49.9,29.90,West,271,0.0,0.0,49,0.00,,---,0.00,VWS V13.01,2013-02-05 01:07:00,
2013-02-04 17:12:00,69.9,49.9,29.90,West,271,0.0,0.0,49,0.00,,---,0.00,VWS V13.01,2013-02-05 01:12:00,
2013-02-04 17:17:00,69.9,49.9,29.93,West,271,0.0,0.0,49,0.00,,---,0.00,VWS V13.01,2013-02-05 01:17:00,
2013-02-04 17:22:00,69.9,49.9,29.93,West,271,0.0,0.0,49,0.00,,---,0.00,VWS V13.01,2013-02-05 01:22:00,
2013-02-04 17:27:00,69.9,49.9,29.93,West,271,0.0,0.0,49,0.00,,---,0.00,VWS V13.01,2013-02-05 01:27:00,
2013-02-04 17:32:00,64.8,49.2,29.91,West,281,0.0,1.0,57,0.00,,---,0.00,VWS V13.01,2013-02-05 01:32:00,
2013-02-04 17:37:00,64.3,49.2,29.91,West,281,0.0,2.0,58,0.00,,---,0.00,VWS V13.01,2013-02-05 01:37:00,
2013-02-04 17:42:00,63.7,49.6,29.91,West,277,0.0,3.0,60,0.00,,---,0.00,VWS V13.01,2013-02-05 01:42:00,
2013-02-04 17:47:00,63.1,49.0,29.92,West,274,0.0,3.0,60,0.00,,---,0.00,VWS V13.01,2013-02-05 01:47:00,
2013-02-04 17:52:00,62.6,49.0,29.92,West,274,0.0,3.0,61,0.00,,---,0.00,VWS V13.01,2013-02-05 01:52:00,
2013-02-04 17:57:00,62.1,48.9,29.92,West,274,0.0,3.0,62,0.00,,---,0.00,VWS V13.01,2013-02-05 01:57:00,
2013-02-04 18:02:00,61.8,48.7,29.92,West,274,0.0,3.0,62,0.00,,---,0.00,VWS V13.01,2013-02-05 02:02:00,
2013-02-04 18:07:00,61.3,48.6,29.92,West,274,0.0,0.0,63,0.00,,---,0.00,VWS V13.01,2013-02-05 02:07:00,
2013-02-04 18:12:00,61.3,48.6,29.92,West,274,0.0,0.0,63,0.00,,---,0.00,VWS V13.01,2013-02-05 02:12:00,
2013-02-04 18:17:00,61.3,48.6,29.93,West,274,0.0,0.0,63,0.00,,---,0.00,VWS V13.01,2013-02-05 02:17:00,
2013-02-04 18:22:00,60.7,48.0,29.93,West,274,0.0,0.0,63,0.00,,---,0.00,VWS V13.01,2013-02-05 02:22:00,
2013-02-04 18:27:00,60.2,47.6,29.93,West,274,0.0,0.0,63,0.00,,---,0.00,VWS V13.01,2013-02-05 02:27:00,
2013-02-04 18:32:00,59.8,47.2,29.94,West,274,0.0,1.0,63,0.00,,---,0.00,VWS V13.01,2013-02-05 02:32:00,
2013-02-04 18:37:00,59.3,47.5,29.94,West,272,0.0,3.0,65,0.00,,---,0.00,VWS V13.01,2013-02-05 02:37:00,
2013-02-04 18:42:00,59.0,47.3,29.94,West,272,0.0,3.0,65,0.00,,---,0.00,VWS V13.01,2013-02-05 02:42:00,
2013-02-04 18:47:00,58.7,47.0,29.94,West,272,0.0,3.0,65,0.00,,---,0.00,VWS V13.01,2013-02-05 02:47:00,
2013-02-04 18:52:00,58.6,46.9,29.94,West,272,0.0,3.0,65,0.00,,---,0.00,VWS V13.01,2013-02-05 02:52:00,
2013-02-04 18:57:00,58.1,46.4,29.94,West,272,0.0,3.0,65,0.00,,---,0.00,VWS V13.01,2013-02-05 02:57:00,
2013-02-04 19:02:00,57.6,46.3,29.95,West,272,0.0,3.0,66,0.00,,---,0.00,VWS V13.01,2013-02-05 03:02:00,
2013-02-04 19:07:00,57.3,46.0,29.95,West,272,0.0,1.0,66,0.00,,---,0.00,VWS V13.01,2013-02-05 03:07:00,
2013-02-04 19:12:00,57.2,46.4,29.95,West,272,0.0,1.0,67,0.00,,---,0.00,VWS V13.01,2013-02-05 03:12:00,
2013-02-04 19:17:00,56.9,46.1,29.96,West,272,0.0,1.0,67,0.00,,---,0.00,VWS V13.01,2013-02-05 03:17:00,
2013-02-04 19:21:00,56.9,46.1,29.96,West,272,0.0,1.0,67,0.00,,---,0.00,VWS V13.01,2013-02-05 03:21:00,
2013-02-04 19:26:00,56.6,45.8,29.96,West,272,0.0,1.0,67,0.00,,---,0.00,VWS V13.01,2013-02-05 03:26:00,
2013-02-04 19:31:00,56.5,45.7,29.97,West,272,0.0,1.0,67,0.00,,---,0.00,VWS V13.01,2013-02-05 03:31:00,
2013-02-04 19:36:00,56.5,45.7,29.97,West,272,0.0,0.0,67,0.00,,---,0.00,VWS V13.01,2013-02-05 03:36:00,
2013-02-04 19:41:00,56.3,45.5,29.97,West,272,0.0,0.0,67,0.00,,---,0.00,VWS V13.01,2013-02-05 03:41:00,
2013-02-04 19:46:00,56.0,45.2,29.97,West,272,0.0,0.0,67,0.00,,---,0.00,VWS V13.01,2013-02-05 03:46:00,
2013-02-04 19:51:00,55.9,45.1,29.97,West,272,0.0,0.0,67,0.00,,---,0.00,VWS V13.01,2013-02-05 03:51:00,
2013-02-04 19:56:00,55.9,45.1,29.97,West,272,0.0,0.0,67,0.00,,---,0.00,VWS V13.01,2013-02-05 03:56:00,
2013-02-04 20:01:00,55.9,45.1,29.98,West,272,0.0,0.0,67,0.00,,---,0.00,VWS V13.01,2013-02-05 04:01:00,
2013-02-04 20:06:00,55.9,45.1,29.98,West,272,0.0,0.0,67,0.00,,---,0.00,VWS V13.01,2013-02-05 04:06:00,
2013-02-04 20:11:00,55.9,45.1,29.98,West,272,0.0,0.0,67,0.00,,---,0.00,VWS V13.01,2013-02-05 04:11:00,
2013-02-04 20:16:00,55.9,45.1,29.97,West,272,0.0,0.0,67,0.00,,---,0.00,VWS V13.01,2013-02-05 04:16:00,
2013-02-04 20:21:00,55.9,45.1,29.97,West,272,0.0,0.0,67,0.00,,---,0.00,VWS V13.01,2013-02-05 04:21:00,
2013-02-04 20:26:00,55.9,45.1,29.97,West,272,0.0,0.0,67,0.00,,---,0.00,VWS V13.01,2013-02-05 04:26:00,
2013-02-04 20:31:00,55.9,45.1,29.97,West,272,0.0,0.0,67,0.00,,---,0.00,VWS V13.01,2013-02-05 04:31:00,
2013-02-04 20:36:00,55.9,45.1,29.97,West,272,0.0,0.0,67,0.00,,---,0.00,VWS V13.01,2013-02-05 04:36:00,
2013-02-04 20:41:00,55.9,45.1,29.97,West,272,0.0,0.0,67,0.00,,---,0.00,VWS V13.01,2013-02-05 04:41:00,
2013-02-04 20:46:00,55.9,45.1,29.97,West,272,0.0,0.0,67,0.00,,---,0.00,VWS V13.01,2013-02-05 04:46:00,
2013-02-04 20:51:00,55.9,45.1,29.97,West,272,0.0,0.0,67,0.00,,---,0.00,VWS V13.01,2013-02-05 04:51:00,
2013-02-04 20:56:00,55.9,45.1,29.97,West,272,0.0,0.0,67,0.00,,---,0.00,VWS V13.01,2013-02-05 04:56:00,
2013-02-04 21:00:00,55.9,45.1,29.97,West,272,0.0,0.0,67,0.00,,---,0.00,VWS V13.01,2013-02-05 05:00:00,
2013-02-04 21:05:00,55.9,45.1,29.98,West,272,0.0,0.0,67,0.00,,---,0.00,VWS V13.01,2013-02-05 05:05:00,
2013-02-04 21:10:00,55.9,45.1,29.98,West,272,0.0,0.0,67,0.00,,---,0.00,VWS V13.01,2013-02-05 05:10:00,
2013-02-04 21:15:00,55.9,45.1,29.98,West,272,0.0,0.0,67,0.00,,---,0.00,VWS V13.01,2013-02-05 05:15:00,
2013-02-04 21:20:00,55.9,45.1,29.98,West,272,0.0,0.0,67,0.00,,---,0.00,VWS V13.01,2013-02-05 05:20:00,
2013-02-04 21:25:00,55.9,45.1,29.98,West,272,0.0,0.0,67,0.00,,---,0.00,VWS V13.01,2013-02-05 05:25:00,
2013-02-04 21:30:00,55.9,45.1,29.98,West,272,0.0,0.0,67,0.00,,---,0.00,VWS V13.01,2013-02-05 05:30:00,
2013-02-04 21:35:00,55.9,45.1,29.99,West,272,0.0,0.0,67,0.00,,---,0.00,VWS V13.01,2013-02-05 05:35:00,
2013-02-04 21:40:00,55.9,45.1,29.99,West,272,0.0,0.0,67,0.00,,---,0.00,VWS V13.01,2013-02-05 05:40:00,
2013-02-04 21:45:00,55.9,45.1,29.99,West,272,0.0,0.0,67,0.00,,---,0.00,VWS V13.01,2013-02-05 05:45:00,
2013-02-04 21:50:00,55.9,45.1,29.99,West,272,0.0,0.0,67,0.00,,---,0.00,VWS V13.01,2013-02-05 05:50:00,
2013-02-04 21:55:00,55.9,45.1,29.99,West,272,0.0,0.0,67,0.00,,---,0.00,VWS V13.01,2013-02-05 05:55:00,
2013-02-04 22:00:00,55.9,45.1,29.99,West,272,0.0,0.0,67,0.00,,---,0.00,VWS V13.01,2013-02-05 06:00:00,
2013-02-04 22:05:00,55.9,45.1,29.99,West,272,0.0,0.0,67,0.00,,---,0.00,VWS V13.01,2013-02-05 06:05:00,
2013-02-04 22:10:00,55.9,45.1,29.99,West,272,0.0,0.0,67,0.00,,---,0.00,VWS V13.01,2013-02-05 06:10:00,
2013-02-04 22:15:00,55.9,45.1,29.99,West,272,0.0,0.0,67,0.00,,---,0.00,VWS V13.01,2013-02-05 06:15:00,
2013-02-04 22:20:00,55.9,45.1,29.99,West,272,0.0,0.0,67,0.00,,---,0.00,VWS V13.01,2013-02-05 06:20:00,
2013-02-04 22:25:00,55.9,45.1,29.99,West,272,0.0,0.0,67,0.00,,---,0.00,VWS V13.01,2013-02-05 06:25:00,
2013-02-04 22:30:00,55.9,45.1,29.99,West,272,0.0,0.0,67,0.00,,---,0.00,VWS V13.01,2013-02-05 06:30:00,
2013-02-04 22:35:00,55.9,45.1,29.99,West,272,0.0,0.0,67,0.00,,---,0.00,VWS V13.01,2013-02-05 06:35:00,
2013-02-04 22:40:00,55.9,45.1,29.99,West,272,0.0,0.0,67,0.00,,---,0.00,VWS V13.01,2013-02-05 06:40:00,
2013-02-04 22:45:00,55.9,45.1,29.99,West,272,0.0,0.0,67,0.00,,---,0.00,VWS V13.01,2013-02-05 06:45:00,
2013-02-04 22:50:00,55.9,45.1,29.99,West,272,0.0,0.0,67,0.00,,---,0.00,VWS V13.01,2013-02-05 06:50:00,
2013-02-04 22:55:00,55.9,45.1,29.99,West,272,0.0,0.0,67,0.00,,---,0.00,VWS V13.01,2013-02-05 06:55:00,
2013-02-04 23:00:00,55.9,45.1,29.99,West,272,0.0,0.0,67,0.00,,---,0.00,VWS V13.01,2013-02-05 07:00:00,
2013-02-04 23:05:00,55.9,45.1,29.99,West,272,0.0,0.0,67,0.00,,---,0.00,VWS V13.01,2013-02-05 07:05:00,
2013-02-04 23:10:00,55.9,45.1,29.99,West,272,0.0,0.0,67,0.00,,---,0.00,VWS V13.01,2013-02-05 07:10:00,
2013-02-04 23:15:00,55.9,45.1,29.99,West,272,0.0,0.0,67,0.00,,---,0.00,VWS V13.01,2013-02-05 07:15:00,
2013-02-04 23:20:00,55.9,45.1,29.99,West,272,0.0,0.0,67,0.00,,---,0.00,VWS V13.01,2013-02-05 07:20:00,
2013-02-04 23:25:00,55.9,45.1,29.99,West,272,0.0,0.0,67,0.00,,---,0.00,VWS V13.01,2013-02-05 07:25:00,
2013-02-04 23:30:00,55.9,45.1,29.99,West,272,0.0,0.0,67,0.00,,---,0.00,VWS V13.01,2013-02-05 07:30:00,
2013-02-04 23:35:00,55.9,45.1,29.99,West,272,0.0,0.0,67,0.00,,---,0.00,VWS V13.01,2013-02-05 07:35:00,
2013-02-04 23:40:00,55.9,45.1,29.99,West,272,0.0,0.0,67,0.00,,---,0.00,VWS V13.01,2013-02-05 07:40:00,
2013-02-04 23:45:00,55.9,45.1,29.99,West,272,0.0,0.0,67,0.00,,---,0.00,VWS V13.01,2013-02-05 07:45:00,
2013-02-04 23:50:00,55.9,45.1,29.99,West,272,0.0,0.0,67,0.00,,---,0.00,VWS V13.01,2013-02-05 07:50:00,
2013-02-04 23:55:00,55.9,45.1,29.99,West,272,0.0,0.0,67,0.00,,---,0.00,VWS V13.01,2013-02-05 07:55:00,